Location: Unspecified
(35.6895°N, 139.6917°E)
Time: 00:51:00
(UTC+00:00)

ASTRO H - Pass Details

Date: 06 October 2021
Orbit: 561 x 579 km, 31.0° (Epoch: 22 October)

Event Time Altitude Azimuth Distance (km) Brightness Sun altitude
Rises 09:18:24 0° 239° (WSW) 2,737 ? -13.0°
Reaches altitude 10° 09:20:51 10° 229° (SW) 1,840 ? -13.5°
Maximum altitude 09:24:38 32° 166° (SSE) 976 ? -14.3°
Enters shadow 09:26:32 22° 122° (ESE) 1,246 ? -14.7°
